Weather History for Dyersburg, TN

Change the Weather History Date:

Friday, October 4, 2013

  Actual Average Record
Temperature  
Mean Temperature 24 °C -  
Max Temperature 29 °C 22 °C 32 °C (2006)
Min Temperature 20 °C 11 °C 3 °C (2010)
Cooling Degree Days 11    
Growing Degree Days 26 (Base 50)    
Moisture  
Dew Point 14 °C    
Average Humidity 53    
Maximum Humidity 60    
Minimum Humidity 45    
Precipitation  
Precipitation 0.00 mm - - ()
Sea Level Pressure  
Sea Level Pressure 1016 hPa    
Wind  
Wind Speed 10 km/h (SSE)    
Max Wind Speed 19 km/h    
Max Gust Speed 32 km/h    
Visibility 16 kilometers    
Events      
Averages and records for this station are not official NWS values.
T = Trace of Precipitation, MM = Missing Value Source: NWS Daily Summary

Daily Weather History Graph

Daily Weather History Graph

Search for Another Location

Airport:

Trip Planner

Search our weather history database for the weather conditions in past years. The results will help you decide how hot, cold, wet, or windy it might be!

Date:

Astronomy

Oct. 04, 2013 Rise Set
Actual Time 6:55 AM CDT 6:36 PM CDT
Civil Twilight 6:29 AM CDT 7:02 PM CDT
Nautical Twilight 6:00 AM CDT 7:31 PM CDT
Astronomical Twilight 5:30 AM CDT 8:01 PM CDT
Moon 6:30 AM CDT (10/4) 6:20 PM CDT (10/4)
Length of Visible Light 12h 32m
Length of Day
11h 41m
Waning Crescent, 0% of the Moon is Illuminated
Oct 4
Waning Crescent
Oct 4
New
Oct 11
First Quarter
Oct 18
Full
Oct 26
Last Quarter

Hourly Weather History & Observations

Time (CDT) Temp. Heat Index Dew Point Humidity Pressure Visibility Wind Dir Wind Speed Gust Speed Precip Events Conditions
12:15 AM 22.0 °C - 13.0 °C 57% 1016.5 hPa 16.1 km SSE 9.3 km/h / 2.6 m/s - N/A   Clear
12:35 AM 22.0 °C - 13.0 °C 57% 1016.5 hPa 16.1 km SSE 11.1 km/h / 3.1 m/s - N/A   Clear
12:55 AM 22.0 °C - 13.0 °C 57% 1016.1 hPa 16.1 km SSE 9.3 km/h / 2.6 m/s - N/A   Clear
1:15 AM 21.0 °C - 13.0 °C 60% 1016.5 hPa 16.1 km SSE 13.0 km/h / 3.6 m/s - N/A   Clear
1:35 AM 21.0 °C - 13.0 °C 60% 1016.5 hPa 16.1 km SSE 9.3 km/h / 2.6 m/s - N/A   Clear
1:55 AM 21.0 °C - 13.0 °C 60% 1016.5 hPa 16.1 km SSE 5.6 km/h / 1.5 m/s - N/A   Clear
2:15 AM 21.0 °C - 13.0 °C 60% 1016.5 hPa 16.1 km SSE 7.4 km/h / 2.1 m/s - N/A   Clear
2:35 AM 21.0 °C - 13.0 °C 60% 1016.5 hPa 16.1 km SSE 7.4 km/h / 2.1 m/s - N/A   Clear
2:55 AM 21.0 °C - 13.0 °C 60% 1016.5 hPa 16.1 km South 9.3 km/h / 2.6 m/s - N/A   Mostly Cloudy
3:15 AM 21.0 °C - 13.0 °C 60% 1016.5 hPa 16.1 km SSE 7.4 km/h / 2.1 m/s - N/A   Scattered Clouds
3:35 AM 21.0 °C - 13.0 °C 60% 1016.5 hPa 16.1 km SSE 9.3 km/h / 2.6 m/s - N/A   Clear
3:55 AM 21.0 °C - 12.0 °C 56% 1016.5 hPa 16.1 km SSE 7.4 km/h / 2.1 m/s - N/A   Clear
4:15 AM 21.0 °C - 12.0 °C 56% 1016.5 hPa 16.1 km South 7.4 km/h / 2.1 m/s - N/A   Clear
4:35 AM 21.0 °C - 12.0 °C 56% 1016.5 hPa 16.1 km SSE 7.4 km/h / 2.1 m/s - N/A   Clear
4:55 AM 21.0 °C - 12.0 °C 56% 1016.5 hPa 16.1 km SSE 7.4 km/h / 2.1 m/s - N/A   Clear
5:15 AM 21.0 °C - 12.0 °C 56% 1016.5 hPa 16.1 km SSE 7.4 km/h / 2.1 m/s - N/A   Clear
5:35 AM 21.0 °C - 12.0 °C 56% 1016.8 hPa 16.1 km South 5.6 km/h / 1.5 m/s - N/A   Clear
5:55 AM 20.0 °C - 12.0 °C 60% 1016.8 hPa 16.1 km SSE 7.4 km/h / 2.1 m/s - N/A   Clear
6:15 AM 20.0 °C - 12.0 °C 60% 1016.8 hPa 16.1 km SSE 7.4 km/h / 2.1 m/s - N/A   Clear
6:35 AM 20.0 °C - 12.0 °C 60% 1017.2 hPa 16.1 km South 7.4 km/h / 2.1 m/s - N/A   Clear
6:55 AM 20.0 °C - 12.0 °C 60% 1017.5 hPa 11.3 km SSE 7.4 km/h / 2.1 m/s - N/A   Clear
7:15 AM 20.0 °C - 12.0 °C 60% 1017.5 hPa 11.3 km SSE 5.6 km/h / 1.5 m/s - N/A   Clear
7:35 AM 20.0 °C - 12.0 °C 60% 1017.5 hPa 11.3 km Calm Calm - N/A   Clear
7:55 AM 21.0 °C - 12.0 °C 56% 1017.5 hPa 14.5 km SE 5.6 km/h / 1.5 m/s - N/A   Clear
8:15 AM 21.0 °C - 13.0 °C 60% 1017.8 hPa 16.1 km SSE 9.3 km/h / 2.6 m/s - N/A   Clear
8:35 AM 22.0 °C - 13.0 °C 57% 1017.8 hPa 16.1 km South 7.4 km/h / 2.1 m/s - N/A   Clear
8:55 AM 22.0 °C - 13.0 °C 57% 1017.8 hPa 16.1 km South 11.1 km/h / 3.1 m/s - N/A   Clear
9:15 AM 23.0 °C - 14.0 °C 57% 1018.2 hPa 16.1 km South 9.3 km/h / 2.6 m/s - N/A   Clear
9:35 AM 23.0 °C - 14.0 °C 57% 1018.2 hPa 16.1 km South 7.4 km/h / 2.1 m/s - N/A   Partly Cloudy
9:55 AM 24.0 °C - 14.0 °C 53% 1018.2 hPa 16.1 km SSE 5.6 km/h / 1.5 m/s - N/A   Clear
10:15 AM 24.0 °C - 14.0 °C 53% 1018.2 hPa 16.1 km SSE 7.4 km/h / 2.1 m/s - N/A   Mostly Cloudy
10:35 AM 25.0 °C - 15.0 °C 54% 1018.2 hPa 16.1 km South 9.3 km/h / 2.6 m/s - N/A   Mostly Cloudy
10:55 AM 26.0 °C - 16.0 °C 54% 1018.2 hPa 16.1 km SSE 7.4 km/h / 2.1 m/s - N/A   Overcast
11:15 AM 28.0 °C 28.3 °C 16.0 °C 48% 1017.8 hPa 16.1 km South 13.0 km/h / 3.6 m/s - N/A   Scattered Clouds
11:35 AM 28.0 °C 28.3 °C 16.0 °C 48% 1017.8 hPa 16.1 km SE 9.3 km/h / 2.6 m/s - N/A   Clear
11:55 AM 28.0 °C 28.3 °C 16.0 °C 48% 1017.8 hPa 16.1 km SE 14.8 km/h / 4.1 m/s - N/A   Partly Cloudy
12:15 PM 28.0 °C 28.3 °C 16.0 °C 48% 1017.5 hPa 16.1 km South 11.1 km/h / 3.1 m/s - N/A   Scattered Clouds
12:35 PM 29.0 °C 29.1 °C 16.0 °C 45% 1017.2 hPa 16.1 km SSE 11.1 km/h / 3.1 m/s - N/A   Mostly Cloudy
12:55 PM 28.0 °C 28.3 °C 16.0 °C 48% 1016.8 hPa 16.1 km South 9.3 km/h / 2.6 m/s 25.9 km/h / 7.2 m/s N/A   Mostly Cloudy
1:15 PM 28.0 °C 28.3 °C 16.0 °C 48% 1016.8 hPa 16.1 km SSE 14.8 km/h / 4.1 m/s - N/A   Mostly Cloudy
1:35 PM 29.0 °C 29.1 °C 16.0 °C 45% 1016.5 hPa 16.1 km South 13.0 km/h / 3.6 m/s 25.9 km/h / 7.2 m/s N/A   Mostly Cloudy
1:55 PM 29.0 °C 29.1 °C 16.0 °C 45% 1016.1 hPa 16.1 km South 11.1 km/h / 3.1 m/s 29.6 km/h / 8.2 m/s N/A   Partly Cloudy
2:15 PM 29.0 °C 29.1 °C 16.0 °C 45% 1016.1 hPa 16.1 km South 13.0 km/h / 3.6 m/s 29.6 km/h / 8.2 m/s N/A   Partly Cloudy
2:35 PM 29.0 °C 29.1 °C 16.0 °C 45% 1016.1 hPa 16.1 km South 18.5 km/h / 5.1 m/s 31.5 km/h / 8.7 m/s N/A   Partly Cloudy
2:55 PM 29.0 °C 29.1 °C 16.0 °C 45% 1016.1 hPa 16.1 km SSE 16.7 km/h / 4.6 m/s 25.9 km/h / 7.2 m/s N/A   Clear
3:15 PM 29.0 °C 29.1 °C 16.0 °C 45% 1015.8 hPa 14.5 km South 18.5 km/h / 5.1 m/s - N/A   Clear
3:35 PM 29.0 °C 29.1 °C 16.0 °C 45% 1015.5 hPa 16.1 km SSE 14.8 km/h / 4.1 m/s - N/A   Scattered Clouds
3:55 PM 29.0 °C 29.1 °C 16.0 °C 45% 1015.5 hPa 16.1 km South 14.8 km/h / 4.1 m/s 29.6 km/h / 8.2 m/s N/A   Partly Cloudy
4:15 PM 29.0 °C 29.1 °C 16.0 °C 45% 1015.1 hPa 16.1 km SSE 14.8 km/h / 4.1 m/s - N/A   Scattered Clouds
4:35 PM 29.0 °C 29.1 °C 16.0 °C 45% 1015.5 hPa 16.1 km South 11.1 km/h / 3.1 m/s - N/A   Scattered Clouds
4:55 PM 28.0 °C 28.0 °C 15.0 °C 45% 1015.5 hPa 14.5 km SSE 13.0 km/h / 3.6 m/s - N/A   Scattered Clouds
5:15 PM 28.0 °C 28.0 °C 15.0 °C 45% 1015.1 hPa 16.1 km SSE 7.4 km/h / 2.1 m/s - N/A   Partly Cloudy
5:35 PM 28.0 °C 28.0 °C 15.0 °C 45% 1015.1 hPa 16.1 km SSE 7.4 km/h / 2.1 m/s - N/A   Scattered Clouds
5:55 PM 27.0 °C 27.3 °C 15.0 °C 48% 1015.5 hPa 16.1 km SSE 7.4 km/h / 2.1 m/s - N/A   Clear
6:15 PM 27.0 °C 27.3 °C 15.0 °C 48% 1015.5 hPa 16.1 km SSE 9.3 km/h / 2.6 m/s - N/A   Partly Cloudy
6:35 PM 27.0 °C 27.1 °C 14.0 °C 45% 1015.5 hPa 16.1 km SSE 5.6 km/h / 1.5 m/s - N/A   Clear
6:55 PM 26.0 °C - 14.0 °C 47% 1015.5 hPa 16.1 km SSE 5.6 km/h / 1.5 m/s - N/A   Clear
7:15 PM 26.0 °C - 14.0 °C 47% 1015.5 hPa 16.1 km SSE 5.6 km/h / 1.5 m/s - N/A   Clear
7:35 PM 25.0 °C - 14.0 °C 50% 1015.8 hPa 16.1 km SSE 5.6 km/h / 1.5 m/s - N/A   Clear
7:55 PM 24.0 °C - 14.0 °C 53% 1015.8 hPa 16.1 km SSE 7.4 km/h / 2.1 m/s - N/A   Clear
8:15 PM 24.0 °C - 14.0 °C 53% 1016.1 hPa 16.1 km SE 7.4 km/h / 2.1 m/s - N/A   Clear
8:35 PM 24.0 °C - 14.0 °C 53% 1016.1 hPa 16.1 km SE 7.4 km/h / 2.1 m/s - N/A   Mostly Cloudy
8:55 PM 24.0 °C - 14.0 °C 53% 1016.1 hPa 16.1 km ESE 5.6 km/h / 1.5 m/s - N/A   Mostly Cloudy
9:15 PM 23.0 °C - 14.0 °C 57% 1016.5 hPa 16.1 km SE 7.4 km/h / 2.1 m/s - N/A   Scattered Clouds
9:35 PM 23.0 °C - 14.0 °C 57% 1016.5 hPa 16.1 km SE 7.4 km/h / 2.1 m/s - N/A   Scattered Clouds
9:55 PM 23.0 °C - 14.0 °C 57% 1016.8 hPa 16.1 km SE 9.3 km/h / 2.6 m/s - N/A   Scattered Clouds
10:15 PM 23.0 °C - 14.0 °C 57% 1016.8 hPa 16.1 km SE 7.4 km/h / 2.1 m/s - N/A   Partly Cloudy
10:35 PM 23.0 °C - 14.0 °C 57% 1016.8 hPa 16.1 km ESE 7.4 km/h / 2.1 m/s - N/A   Scattered Clouds
10:55 PM 23.0 °C - 14.0 °C 57% 1016.8 hPa 16.1 km SE 7.4 km/h / 2.1 m/s - N/A   Scattered Clouds
11:15 PM 23.0 °C - 14.0 °C 57% 1016.8 hPa 16.1 km SE 5.6 km/h / 1.5 m/s - N/A   Mostly Cloudy
11:35 PM 23.0 °C - 14.0 °C 57% 1017.2 hPa 16.1 km SSE 7.4 km/h / 2.1 m/s - N/A   Scattered Clouds
11:55 PM 23.0 °C - 14.0 °C 57% 1017.2 hPa 16.1 km SE 7.4 km/h / 2.1 m/s - N/A   Mostly Cloudy